Regional Weather Roundup
Issued by NWS

Home | Current Version | Previous Version | Text Only | Print | Product List | Glossary On
Versions: 1 2 3 4 5 6 7 8 9 10 11 12 13 14 15 16 17 18 19 20 21 22 23 24 25 26 27 28 29 30 31 32 33 34 35 36 37 38 39 40 41 42 43 44 45 46 47 48 49 50
000
ASUS43 KLOT 190812
RWRIL

ILLINOIS REGIONAL WEATHER ROUNDUP
NATIONAL WEATHER SERVICE CHICAGO/ROMEOVILLE IL
300 AM CDT SUN APR 19 2015

NOTE: "FAIR" INDICATES FEW OR NO CLOUDS BELOW 12,000 FEET WITH NO
SIGNIFICANT WEATHER AND/OR OBSTRUCTIONS TO VISIBILITY.

* THESE STATIONS ARE NOT UNDER NWS QUALITY CONTROL. THEY ALSO MAY NOT
  REPORT WEATHER SUCH AS PRECIPITATION OR FOG.

ILZ001-002-007-009-015-016-024-190900-
NORTHWEST ILLINOIS

CITY           SKY/WX    TMP DP  RH WIND       PRES   REMARKS
MOLINE         MOCLDY    53  37  54 E10       29.83F
STERLING*      CLOUDY    55  39  54 E14       29.86F
SAVANNA*       MOCLDY    56  39  53 SE8       29.86F
$$

ILZ003-004-008-010-011-017-018-190900-
NORTH CENTRAL ILLINOIS

CITY           SKY/WX    TMP DP  RH WIND       PRES   REMARKS
ROCKFORD       CLOUDY    56  32  40 E9        29.91F
FREEPORT*      MOCLDY    50  38  63 E9        29.90F
ROCHELLE*      CLOUDY    53  37  53 E12       29.88F
DE KALB*       CLOUDY    51  31  46 E10       29.89F
PERU*          CLOUDY    55  42  62 E9        29.87F
$$

ILZ005-006-012>014-019>023-190900-
NORTHEAST ILLINOIS

CITY           SKY/WX    TMP DP  RH WIND       PRES   REMARKS
CHICAGO-OHARE  CLOUDY    55  25  31 E10G23    29.91F
CHICAGO-MIDWAY CLOUDY    57  28  33 E7        29.91F
AURORA         CLOUDY    55  30  38 E9        29.89F
LANSING*       MOCLDY    56  24  29 E12       29.92F
JOLIET*        CLOUDY    58  32  37 E14       29.89F
WAUKEGAN       CLOUDY    45  34  65 E7        29.95F
DUPAGE AIRPORT CLOUDY    54  29  38 E7        29.90F
KANKAKEE*      CLOUDY    56  37  50 E12       29.90F
WHEELING       CLOUDY    50  31  48 E7        29.94F
MORRIS*        CLOUDY    58  34  40 E15       29.86F
ROMEOVILLE*    CLOUDY    55  29  37 E9        29.89F
NORTHERLY ISL    N/A     51  34  52 NE5         N/A
$$

LMZ740>746-190900-
SOUTHERN LAKE MICHIGAN

STATION/POSITION SKY/WX   TEMP    WIND        PRES    VSBY  WAVE
                          AIR SEA DIR/SP/G                  HT/PER
                          (F)     (DEG/KT/KT) (MB)    (MI)  (FT/S)
HARRISON CRIB              49     100/  6/  7   N/A
BURNHAM HARBOR             51      60/  5/  6   N/A
CALUMET HARBOR             54     100/  7/  9   N/A
BURNS HARBOR               58     120/ 17/ 23 1014.2F
MICHIGAN CITY              57      80/ 13/ 19   N/A
MICHIGAN CITY 6N           52 45  120/ 12/ 14   N/A           3/ 6
$$

ILZ025>027-034>036-040-047-049-050-058-095>099-190900-
WEST-CENTRAL ILLINOIS

CITY           SKY/WX    TMP DP  RH WIND       PRES   REMARKS
QUINCY         CLOUDY    60  55  83 E7        29.78F
GALESBURG*     MOCLDY    56  44  62 E9        29.81F
MACOMB*        MOCLDY    61  49  65 CALM      29.83F
JACKSONVILLE*  MOCLDY    60  51  72 E6        29.79F
PITTSFIELD*    MOCLDY    64  53  67 CALM      29.79F
$$

ILZ028>032-037-038-041>044-048-051>054-059>061-190900-
CENTRAL ILLINOIS

CITY           SKY/WX    TMP DP  RH WIND       PRES   REMARKS
PONTIAC        MOCLDY    55  46  70 E16       29.87F
BLOOMINGTON    PTCLDY    53  46  77 E8        29.86F
DECATUR        MOCLDY    58  49  72 E8        29.83F
PEORIA         MOCLDY    58  43  57 E12       29.83F
LACON*         MOCLDY    52  41  66 E7        29.85F
LINCOLN*       PTCLDY    59  49  70 E7        29.81F
SPRINGFIELD    PTCLDY    61  49  64 E7        29.81F
TAYLORVILLE    MOCLDY    61  48  63 E6        29.80F
$$

ILZ033-039-045-046-055>057-062-063-190900-
EAST-CENTRAL ILLINOIS

CITY           SKY/WX    TMP DP  RH WIND       PRES   REMARKS
CHAMPAIGN      CLOUDY    58  50  75 E10       29.84F
DANVILLE*      CLOUDY    57  48  72 E8        29.85F
RANTOUL*       CLOUDY    60  52  75 E13       29.86F
MATTOON        CLOUDY    66  46  48 E12       29.81F
PARIS*         CLOUDY    61  51  70 E7        29.85F
$$

ILZ079-100>102-190900-
SOUTHWEST ILLINOIS

CITY           SKY/WX    TMP DP  RH WIND       PRES   REMARKS
ALTON          MOCLDY    63  49  61 E6        29.77F
BELLEVILLE     MOCLDY    61  56  84 VRB2      29.75F
CAHOKIA*       MOCLDY    63  56  78 CALM      29.75F
SPARTA*        CLOUDY    62  57  84 E6        29.76F
$$

ILZ064>066-069>071-074>076-080>082-084>086-088>090-092>094-190900-
SOUTH-CENTRAL ILLINOIS

CITY           SKY/WX    TMP DP  RH WIND       PRES   REMARKS
CARBONDALE     CLOUDY    66  55  67 SE8       29.75F
CAIRO*         LGT RAIN  65  64  97 NE3       29.73F
EFFINGHAM*     CLOUDY    64  44  48 E5        29.81F
MARION         CLOUDY    68  57  68 SE9       29.76F
MT. VERNON     CLOUDY    64  48  55 E6        29.78F
CENTRALIA*     CLOUDY    64  48  57 E5        29.77F
SALEM*         CLOUDY    67  47  49 E3        29.79F
METROPOLIS*    RAIN      65  63  93 E3        29.74F
$$

ILZ067-068-072-073-078-083-087-091-190900-
SOUTHEAST ILLINOIS

CITY           SKY/WX    TMP DP  RH WIND       PRES   REMARKS
LAWRENCEVILLE  CLOUDY    65  48  54 E8        29.79F
FLORA*         CLOUDY    63  48  58 NE3       29.79F
FAIRFIELD*     CLOUDY    65  50  58 E6        29.77F
HARRISBURG*    LGT RAIN  65  58  76 SE9       29.79F
ROBINSON*      CLOUDY    60  49  67 E7        29.81F
CARMI*         CLOUDY    65  49  56 SE8       29.78F
$$

ABBREVIATIONS USED IN REMARKS
   TC - TEMPERATURE IN CELSIUS
  WCI - WIND CHILL INDEX
   HX - HEAT INDEX
  VSB - VISIBILITY
$$




USA.gov is the U.S. government's official web portal to all federal, state and local government web resources and services.